Voltar ao catálogo

STARLINK-35228

AtivoComunicaçõesVLEO
NORAD 65517·PAYLOAD·🇺🇸 United States

Lançado Sep 5, 2025 de Cape Canaveral Space Force Station

Loading…

Próximas Passagens (próximas 24 horas)

TLE

AtualizadoSource: CelesTrak SupGP

Época: Sep 14, 2026, 22:33 UTC

1 65517C 25198AB  26257.94006944 -.00020671  00000+0 -61081-3 0  2570
2 65517  53.1582 107.5190 0001324  82.3209  59.2966 15.34396172    16

Acompanhe STARLINK-35228 em tempo real com AllMySat

Download on the App Store